Regional Weather Roundup
Issued by NWS

Home | Current Version | Previous Version | Text Only | Print | Product List | Glossary On
Versions: 1 2 3 4 5 6 7 8 9 10 11 12 13 14 15 16 17 18 19 20 21 22 23 24 25 26 27 28 29 30 31 32 33 34 35 36 37 38 39 40 41 42 43 44 45 46 47 48 49 50
000
ASUS43 KMKX 061700
RWRWI

WISCONSIN REGIONAL WEATHER ROUNDUP
NATIONAL WEATHER SERVICE MILWAUKEE/SULLIVAN WI
1100 AM CST TUE DEC 06 2016

NOTE: "FAIR" INDICATES FEW OR NO CLOUDS BELOW 12,000 FEET WITH NO
SIGNIFICANT WEATHER AND/OR OBSTRUCTIONS TO VISIBILITY.

WIZ001-002-006>008-014>016-023>028-061800-
NORTHWEST WISCONSIN

CITY           SKY/WX    TMP DP  RH WIND       PRES   REMARKS
SUPERIOR ARPT  PTSUNNY   27  17  63 SW22      29.59F WCI  13
ASHLAND        CLOUDY    30  26  85 MISG      29.59S
HAYWARD        MOSUNNY   25  17  72 SW9G18    29.61R WCI  15
SIREN          CLOUDY    23  15  71 SW20G25   29.65S WCI   9
CUMBERLAND     CLOUDY    23  16  74 SW17G24   29.66R WCI   9
RICE LAKE      CLOUDY    25  19  78 S15       29.69R WCI  12
CHETEK         CLOUDY    24  18  77 SW17      29.69R WCI  11
LADYSMITH      CLOUDY    29  25  85 SW12G17   29.66S WCI  19
EAU CLAIRE     NOT AVBL
MENOMONIE      CLOUDY    26  19  76 SW18G24   29.72R WCI  12
NEW RICHMOND   CLOUDY    23  15  72 SW21G26   29.70S WCI   7
OSCEOLA        CLOUDY    23  14  68 SW21      29.73F WCI   8
$$

WIZ003>005-009-010-017-018-061800-
NORTH CENTRAL WISCONSIN

CITY           SKY/WX    TMP DP  RH WIND       PRES   REMARKS
MANITOWISH WTR LGT SNOW  30  30 100 S14G20    29.59S WCI  20
ARBOR VITAE    LGT SNOW  32  30  92 S9G17     29.60F WCI  24
WOODRUFF       LGT SNOW  32  30  92 S9G17     29.60F WCI  24
RHINELANDER    LGT SNOW  31  30  96 S9        29.63F FOG     WCI  23
EAGLE RIVER    CLOUDY    30  30  97 S9G16     29.62S FOG     WCI  22
LAND O LAKES   CLOUDY    32  29  91 S12G18    29.62S FOG     WCI  23
PHILLIPS       LGT SNOW  29  28  96 SW10      29.61F VSB 3/4 WCI  19
TOMAHAWK       LGT SNOW  30  28  93 S5        29.64F VSB 3/4 WCI  25
MEDFORD        LGT SNOW  30  28  94 SW10G16   29.64S VSB 1   WCI  21
MERRILL        LGT SNOW  31  30  97 S8        29.66F VSB 1   WCI  23
$$

WIZ029-030-035-036-043>047-061800-
CENTRAL WISCONSIN

CITY           SKY/WX    TMP DP  RH WIND       PRES   REMARKS
WAUSAU         LGT SNOW  30  29  96 S10       29.67F VSB 3/4 WCI  21
MOSINEE        NOT AVBL
MARSHFIELD     NOT AVBL
STEVENS POINT  MIX PCPN  30  30 100 S8        29.71S WCI  22
WAUPACA        CLOUDY    34  32  92 S8        29.74F FOG     WCI  27
WAUTOMA        NOT AVBL
WISC RAPIDS    LGT SNOW  32  32 100 SW9       29.72F VSB 3/4 WCI  24
CAMP DOUGLAS   FLURRIES  32  32 100 SW7       29.72F WCI  26
$$

WIZ011>013-019>022-031-037>040-048>050-061800-
NORTHEAST WISCONSIN

CITY           SKY/WX    TMP DP  RH WIND       PRES   REMARKS
ANTIGO         FOG       29  29 100 S12       29.67F VSB 1   WCI  19
SHAWANO        CLOUDY    35  32  90 SW6       29.74R FOG     WCI  29
OCONTO         CLOUDY    39  33  79 S9G16     29.73F WCI  32
STURGEON BAY   NOT AVBL
GREEN BAY      CLOUDY    39  36  89 S6        29.72F FOG     WCI  35
MANITOWOC      NOT AVBL
APPLETON       FOG       32  32 100 SW9       29.72F VSB 3/4 WCI  24
CLINTONVILLE   CLOUDY    32  30  93 SW10      29.73F WCI  24
OSHKOSH        CLOUDY    32  30  92 SW8       29.74S FOG     WCI  25
$$

WIZ032>034-041-042-053>061-061800-
SOUTHWEST WISCONSIN

CITY           SKY/WX    TMP DP  RH WIND       PRES   REMARKS
LA CROSSE      MOSUNNY   31  23  72 SW15      29.78R WCI  20
SPARTA         CLOUDY    31  30  96 W9        29.75S WCI  23
VIROQUA        CLOUDY    28  24  84 W17G23    29.75S WCI  16
BOSCOBEL       CLOUDY    33  28  81 SW9       29.80S WCI  25
PRAIRIE DU CHI CLOUDY    31  22  68 W15G22    29.83R WCI  20
PLATTEVILLE    CLOUDY    33  33 100 W17       29.80R WCI  22
$$

WIZ056-057-062-063-064-067-068-061800-
SOUTH CENTRAL WISCONSIN

CITY           SKY/WX    TMP DP  RH WIND       PRES   REMARKS
REEDSBURG      LGT SNOW  32  32 100 SW9       29.75S WCI  24
BARABOO/DELLS  CLOUDY    32  32  99 SW9       29.74S FOG     WCI  24
LONE ROCK      LGT SNOW  34  31  88 W14G21    29.78S FOG     WCI  25
MINERAL POINT  CLOUDY    34  34 100 SW10      29.77S FOG     WCI  26
MADISON        CLOUDY    33  31  92 SW6       29.75F FOG     WCI  28
MIDDLETON      NOT AVBL
WATERTOWN      CLOUDY    32  32 100 SW12      29.77R FOG     WCI  23
MONROE         CLOUDY    32  32 100 SW8       29.76F FOG     WCI  25
JANESVILLE     CLOUDY    36  36 100 SW6       29.76F WCI  31
$$

WIZ051-052-058>065-066-070>072-061800-
SOUTHEAST WISCONSIN

CITY           SKY/WX    TMP DP  RH WIND       PRES   REMARKS
MILWAUKEE      CLOUDY    41  35  79 SW6       29.74F
WAUKESHA       PTSUNNY   34  32  93 S5        29.74F FOG     WCI  30
MILWAUKEE/TIMM NOT AVBL
RACINE         CLOUDY    39  34  82 CALM      29.75F HAZE
BURLINGTON     CLOUDY    34  33  97 CALM      29.76F FOG
KENOSHA        CLOUDY    37  34  89 W7        29.74F FOG     WCI  32
FOND DU LAC    CLOUDY    34  30  85 W9        29.74R FOG     WCI  27
SHEBOYGAN      CLOUDY    40  34  79 S9        29.74F WCI  34
WEST BEND      CLOUDY    36  34  93 S6        29.74F WCI  31
JUNEAU         CLOUDY    32  31  95 SW12      29.77R FOG     WCI  23
$$

LSZ147-162-061800-
LAKE SUPERIOR

STATION/POSITION TIME  TEMP    WIND        PRES    WAVE
                       AIR SEA DIR/SP/G            HT/PER
                 (UTC) (F)     (DEG/KT/KT) (MB)    (FT/S)
DEVILS ISLAND    1600   33     200/ 14/ 20 1002.1F
PORT WING        1640   30     200/ 13/ 23 1002.0S
SAXON HARBOR     1640   33     210/  9/ 14 1002.0F
$$

LMZ867-665-643>646-061800-
LAKE MICHIGAN

STATION/POSITION TIME  TEMP    WIND        PRES    WAVE
                       AIR SEA DIR/SP/G            HT/PER
                 (UTC) (F)     (DEG/KT/KT) (MB)    (FT/S)
CHAMBERS ISLAND  1640   39     150/  8/ 16 1006.8F
NORTHPORT PIER   1640   39     150/ 11/ 21 1007.8S
SISTER BAY       1623   40     170/ 14/ 19   N/A
ALGOMA LAKESHORE 1536          200/ 21/ 23   N/A
KEWAUNEE LAKESHO 1630   39     170/ 18/ 23 1007.4F
SHEBOYGAN LAKESH 1600   39     160/ 16/ 18 1008.0F
PORT WASHINGTON  1630   41     160/ 12/ 14 1008.5F
MILWAUKEE LAKESH 1630   40     210/  6/  8   N/A
KENOSHA   LAKESH 1600   40     170/  4/  8 1008.1
$$

TC  - TEMPERATURE IN CELSIUS
VSB - VISIBILITY IN STATUTE MILES
WCI - WIND CHILL INDEX
HX  - HEAT INDEX





USA.gov is the U.S. government's official web portal to all federal, state and local government web resources and services.